timestamp,surface_pressure_avg,surface_temp_avg,battery_voltage,lat,long
2021-05-25 00:09:01+00:00,336.4514,6.6,13.37,47.84626,-54.09684
2021-05-25 00:19:01+00:00,329.92800000000005,6.6,13.05,47.84626,-54.09684
2021-05-25 00:29:01+00:00,323.118,6.59,13.05,47.84626,-54.09684
2021-05-25 00:39:01+00:00,313.5397,6.6,13.05,47.84626,-54.09684
2021-05-25 00:49:01+00:00,302.5179,6.6,13.05,47.84626,-54.09684
2021-05-25 00:59:01+00:00,293.118,6.6,13.05,47.84626,-54.09684
2021-05-25 01:09:01+00:00,285.6697,6.59,13.05,47.84626,-54.09684
2021-05-25 01:19:00+00:00,273.7164,6.59,12.73,47.84626,-54.09684
2021-05-25 01:29:00+00:00,263.8914,6.6,12.73,47.84626,-54.09684
2021-05-25 01:39:00+00:00,259.1381,6.6,12.73,47.84626,-54.09684
2021-05-25 01:49:00+00:00,249.9281,6.6,12.73,47.84626,-54.09684
2021-05-25 01:59:00+00:00,236.8614,6.6,12.73,47.84626,-54.09684
2021-05-25 02:09:00+00:00,230.4449,6.6,12.73,47.84626,-54.09684
2021-05-25 02:19:00+00:00,225.4615,6.6,12.65,47.84626,-54.09684
2021-05-25 02:29:00+00:00,214.7798,6.6,12.65,47.84626,-54.09684
2021-05-25 02:39:00+00:00,203.4547,6.6,12.65,47.84626,-54.09684
2021-05-25 02:49:00+00:00,200.8198,6.6,12.65,47.84626,-54.09684
2021-05-25 02:59:00+00:00,194.5048,6.6,12.65,47.84626,-54.09684
2021-05-25 03:09:00+00:00,184.0031,6.6,12.65,47.84626,-54.09684
2021-05-25 03:19:01+00:00,183.6281,6.6,12.65,47.84626,-54.09684
2021-05-25 03:29:01+00:00,179.6815,6.6,12.65,47.84626,-54.09684
2021-05-25 03:39:01+00:00,169.0748,6.6,12.65,47.84626,-54.09684
2021-05-25 03:49:01+00:00,168.8049,6.59,12.65,47.84626,-54.09684
2021-05-25 03:59:01+00:00,171.0447,6.59,12.65,47.84626,-54.09684
2021-05-25 04:09:01+00:00,167.8348,6.58,12.65,47.84626,-54.09684
2021-05-25 04:19:01+00:00,166.0414,6.5,12.65,47.84626,-54.09684
2021-05-25 04:29:01+00:00,168.2882,6.3,12.65,47.84626,-54.09684
2021-05-25 04:39:01+00:00,166.0948,6.2,12.65,47.84626,-54.09684
2021-05-25 04:49:01+00:00,164.3415,6.08,12.65,47.84626,-54.09684
2021-05-25 04:59:01+00:00,168.2598,6.04,12.65,47.84626,-54.09684
2021-05-25 05:09:01+00:00,169.2464,6.02,12.65,47.84626,-54.09684
2021-05-25 05:19:01+00:00,167.9532,6.0,12.65,47.84626,-54.09684
2021-05-25 05:29:01+00:00,172.7248,6.0,12.65,47.84626,-54.09684
2021-05-25 05:39:01+00:00,178.1398,6.05,12.65,47.84626,-54.09684
2021-05-25 05:49:01+00:00,175.4266,6.1,12.65,47.84626,-54.09684
2021-05-25 05:59:01+00:00,176.8015,6.2,12.65,47.84626,-54.09684
2021-05-25 06:09:01+00:00,185.3981,6.24,12.65,47.84626,-54.09684
2021-05-25 06:19:00+00:00,190.2581,6.3,12.65,47.84626,-54.09684
2021-05-25 06:29:00+00:00,190.7031,6.3,12.65,47.84626,-54.09684
2021-05-25 06:39:00+00:00,191.8098,6.38,12.65,47.84626,-54.09684
2021-05-25 06:49:00+00:00,201.1665,6.4,12.65,47.84626,-54.09684
2021-05-25 06:59:00+00:00,209.2931,6.4,12.65,47.84626,-54.09684
2021-05-25 07:09:00+00:00,210.8965,6.45,12.65,47.84626,-54.09684
2021-05-25 07:19:00+00:00,218.4164,6.47,12.65,47.84626,-54.09684
2021-05-25 07:29:00+00:00,229.2397,6.47,12.65,47.84626,-54.09684
2021-05-25 07:39:00+00:00,233.9914,6.46,12.65,47.84626,-54.09684
2021-05-25 07:49:00+00:00,237.8131,6.45,12.65,47.84626,-54.09684
2021-05-25 07:59:00+00:00,246.9314,6.42,12.65,47.84626,-54.09684
2021-05-25 08:09:00+00:00,255.0531,6.4,12.65,47.84626,-54.09684
2021-05-25 08:19:01+00:00,259.3414,6.4,12.65,47.84626,-54.09684
2021-05-25 08:29:01+00:00,267.8864,6.4,12.65,47.84626,-54.09684
2021-05-25 08:39:01+00:00,277.0831,6.3,12.65,47.84626,-54.09684
2021-05-25 08:49:01+00:00,280.8547,6.2,12.65,47.84626,-54.09684
2021-05-25 08:59:01+00:00,284.0081,6.22,12.65,47.84626,-54.09684
2021-05-25 09:09:01+00:00,293.1263,6.27,12.65,47.84626,-54.09684
2021-05-25 09:19:01+00:00,299.148,6.28,12.81,47.84626,-54.09684
2021-05-25 09:29:01+00:00,302.6229,6.3,12.81,47.84626,-54.09684
2021-05-25 09:39:01+00:00,307.0164,6.3,12.81,47.84626,-54.09684
2021-05-25 09:49:01+00:00,313.203,6.3,12.81,47.84626,-54.09684
2021-05-25 09:59:01+00:00,316.0912,6.3,12.81,47.84626,-54.09684
2021-05-25 10:09:01+00:00,319.208,6.3,12.81,47.84626,-54.09684
2021-05-25 10:19:01+00:00,324.9529,6.3,13.68,47.84626,-54.09684
2021-05-25 10:29:01+00:00,327.8181,6.29,13.68,47.84626,-54.09684
2021-05-25 10:39:01+00:00,325.0647,6.3,13.68,47.84626,-54.09684
2021-05-25 10:49:01+00:00,327.0679,6.28,13.68,47.84626,-54.09684
2021-05-25 10:59:01+00:00,332.8063,6.28,13.68,47.84626,-54.09684
2021-05-25 11:09:01+00:00,333.1946,6.29,13.68,47.84626,-54.09684
2021-05-25 11:19:01+00:00,328.2347,6.3,14.48,47.84626,-54.09684
2021-05-25 11:29:01+00:00,328.098,6.3,14.48,47.84626,-54.09684
2021-05-25 11:39:01+00:00,327.0847,6.28,14.48,47.84626,-54.09684
2021-05-25 11:49:01+00:00,322.8279,6.2,14.48,47.84626,-54.09684
2021-05-25 11:59:01+00:00,320.318,6.2,14.48,47.84626,-54.09684
2021-05-25 12:09:01+00:00,317.093,6.2,14.48,47.84626,-54.09684
2021-05-25 12:19:01+00:00,310.168,6.21,14.48,47.84626,-54.09684
2021-05-25 12:29:01+00:00,305.053,6.22,14.48,47.84626,-54.09684
2021-05-25 12:39:01+00:00,299.783,6.2,14.48,47.84626,-54.09684
2021-05-25 12:49:01+00:00,293.8148,6.2,14.48,47.84626,-54.09684
2021-05-25 12:59:01+00:00,285.3931,6.2,14.48,47.84626,-54.09684
2021-05-25 13:09:01+00:00,279.4247,6.1,14.48,47.84626,-54.09684
2021-05-25 13:19:01+00:00,270.5647,6.06,14.56,47.84626,-54.09684
2021-05-25 13:29:01+00:00,259.3514,6.09,14.56,47.84626,-54.09684
2021-05-25 13:39:01+00:00,247.9064,6.0,14.56,47.84626,-54.09684
2021-05-25 13:49:01+00:00,239.2281,6.0,14.56,47.84626,-54.09684
2021-05-25 13:59:01+00:00,231.1581,5.99,14.56,47.84626,-54.09684
2021-05-25 14:09:01+00:00,220.1964,6.0,14.56,47.84626,-54.09684
2021-05-25 14:19:01+00:00,210.3681,6.05,14.32,47.84626,-54.09684
2021-05-25 14:29:01+00:00,202.3698,6.0,14.32,47.84626,-54.09684
2021-05-25 14:39:01+00:00,195.6514,6.0,14.32,47.84626,-54.09684
2021-05-25 14:49:01+00:00,184.4281,6.08,14.32,47.84626,-54.09684
2021-05-25 14:59:01+00:00,175.9799,6.2,14.32,47.84626,-54.09684
2021-05-25 15:09:01+00:00,172.6331,6.19,14.32,47.84626,-54.09684
2021-05-25 15:19:01+00:00,164.7548,6.19,14.32,47.84626,-54.09684
2021-05-25 15:29:01+00:00,155.0665,6.2,14.32,47.84626,-54.09684
2021-05-25 15:39:01+00:00,150.0882,6.2,14.32,47.84626,-54.09684
2021-05-25 15:49:01+00:00,148.4232,6.25,14.32,47.84626,-54.09684
2021-05-25 15:59:01+00:00,147.7765,6.3,14.32,47.84626,-54.09684
2021-05-25 16:09:01+00:00,146.3648,6.3,14.32,47.84626,-54.09684
2021-05-25 16:19:00+00:00,143.7532,6.38,14.32,47.84626,-54.09684
2021-05-25 16:29:00+00:00,145.2199,6.4,14.32,47.84626,-54.09684
2021-05-25 16:39:00+00:00,148.2582,6.4,14.32,47.84626,-54.09684
2021-05-25 16:49:00+00:00,147.3165,6.4,14.32,47.84626,-54.09684
2021-05-25 16:59:00+00:00,149.0115,6.34,14.32,47.84626,-54.09684
2021-05-25 17:09:00+00:00,154.1898,6.4,14.32,47.84626,-54.09684
2021-05-25 17:19:00+00:00,157.7932,6.4,14.16,47.84626,-54.09684
2021-05-25 17:29:00+00:00,159.5432,6.4,14.16,47.84626,-54.09684
2021-05-25 17:39:00+00:00,162.3849,6.5,14.16,47.84626,-54.09684
2021-05-25 17:49:00+00:00,169.4132,6.52,14.16,47.84626,-54.09684
2021-05-25 17:59:00+00:00,176.4948,6.56,14.16,47.84626,-54.09684
2021-05-25 18:09:00+00:00,180.2498,6.59,14.16,47.84626,-54.09684
2021-05-25 18:19:00+00:00,183.6748,6.6,14.16,47.84626,-54.09684
2021-05-25 18:29:00+00:00,190.0832,6.6,14.16,47.84626,-54.09684
2021-05-25 18:39:00+00:00,195.2715,6.68,14.16,47.84626,-54.09684
2021-05-25 18:49:00+00:00,199.3098,6.7,14.16,47.84626,-54.09684
2021-05-25 18:59:00+00:00,206.8848,6.7,14.16,47.84626,-54.09684
2021-05-25 19:09:00+00:00,212.9798,6.7,14.16,47.84626,-54.09684
2021-05-25 19:19:01+00:00,216.0847,6.69,14.0,47.84626,-54.09684
2021-05-25 19:29:01+00:00,225.1164,6.61,14.0,47.84626,-54.09684
2021-05-25 19:39:01+00:00,235.7331,6.68,14.0,47.84626,-54.09684
2021-05-25 19:49:01+00:00,243.6414,6.68,14.0,47.84626,-54.09684
2021-05-25 19:59:01+00:00,250.7231,6.68,14.0,47.84626,-54.09684
2021-05-25 20:09:01+00:00,259.458,6.6,14.0,47.84626,-54.09684
2021-05-25 20:19:01+00:00,271.0865,6.6,13.92,47.84626,-54.09684
2021-05-25 20:29:01+00:00,280.2764,6.58,13.92,47.84626,-54.09684
2021-05-25 20:39:01+00:00,290.1947,6.52,13.92,47.84626,-54.09684
2021-05-25 20:49:01+00:00,301.803,6.55,13.92,47.84626,-54.09684
2021-05-25 20:59:01+00:00,312.20799999999997,6.55,13.92,47.84626,-54.09684
2021-05-25 21:09:01+00:00,318.3529,6.52,13.92,47.84626,-54.09684
2021-05-25 21:19:01+00:00,325.008,6.51,13.6,47.84626,-54.09684
2021-05-25 21:29:01+00:00,334.0696,6.54,13.6,47.84626,-54.09684
2021-05-25 21:39:01+00:00,341.5163,6.58,13.6,47.84626,-54.09684
2021-05-25 21:49:01+00:00,348.3896,6.6,13.6,47.84626,-54.09684
2021-05-25 21:59:01+00:00,353.1313,6.6,13.6,47.84626,-54.09684
2021-05-25 22:09:01+00:00,358.9846,6.6,13.6,47.84626,-54.09684
2021-05-25 22:19:01+00:00,361.4645,6.58,13.29,47.84626,-54.09684
2021-05-25 22:29:01+00:00,361.8313,6.5,13.29,47.84626,-54.09684
2021-05-25 22:39:01+00:00,365.6912,6.5,13.29,47.84626,-54.09684
2021-05-25 22:49:01+00:00,367.3062,6.5,13.29,47.84626,-54.09684
2021-05-25 22:59:01+00:00,368.0862,6.5,13.29,47.84626,-54.09684
2021-05-25 23:09:01+00:00,365.853,6.5,13.29,47.84626,-54.09684
2021-05-25 23:19:01+00:00,367.5247,6.5,12.89,47.84626,-54.09684
2021-05-25 23:29:01+00:00,368.1246,6.5,12.89,47.84626,-54.09684
2021-05-25 23:39:01+00:00,363.3096,6.5,12.89,47.84626,-54.09684
2021-05-25 23:49:01+00:00,361.67800000000005,6.5,12.89,47.84626,-54.09684
2021-05-25 23:59:01+00:00,356.5797,6.5,12.89,47.84626,-54.09684
